JTC427 LKTB-LTFJ

Flight info

Callsign JTC427
Flight time N/A
Altitude 45000
Route ODNEM DCT NIT DCT ERGOM DCT DODAR DCT MEDUD DCT GUPRO DCT LELTI DCT XANEX DCT ETOPO DCT ADORU UM19 IBODU
Aircraft C750/M-SBDE3FGHRWXY/S

Departure

Time 2026-04-21 18:51
Airport Brno-Tuřany Airport (LKTB)

Arrival

Time N/A
Airport Istanbul Sabiha Gökçen International Airport (LTFJ)
Time Latitude Longitude Altitude Speed Heading
2026-04-21 18:50 49.14986 16.71105 785 ft 0 kts 277°
2026-04-21 18:51 49.14997 16.70977 784 ft 44 kts 277°
2026-04-21 18:51 49.15085 16.69955 777 ft 140 kts 278°
2026-04-21 18:51 49.15175 16.68381 1289 ft 155 kts 276°
2026-04-21 18:51 49.15224 16.66769 2242 ft 139 kts 279°
2026-04-21 18:52 49.15237 16.65433 3282 ft 122 kts 279°
2026-04-21 18:52 49.15102 16.63922 3528 ft 170 kts 246°
2026-04-21 18:52 49.14220 16.62542 4069 ft 182 kts 213°
2026-04-21 18:52 49.13189 16.61946 5321 ft 134 kts 185°
2026-04-21 18:53 49.12242 16.61889 5231 ft 161 kts 172°
2026-04-21 18:53 49.11214 16.62615 5341 ft 168 kts 133°
2026-04-21 18:53 49.10533 16.63738 6594 ft 126 kts 122°
2026-04-21 18:53 49.09975 16.64759 7302 ft 131 kts 124°
2026-04-21 18:54 49.09334 16.65918 7718 ft 156 kts 125°
2026-04-21 18:54 49.08573 16.67278 8169 ft 182 kts 127°
2026-04-21 18:54 49.07695 16.68839 8694 ft 206 kts 127°
2026-04-21 18:54 49.06707 16.70593 9227 ft 230 kts 128°
2026-04-21 18:55 49.05993 16.71860 9560 ft 246 kts 128°
2026-04-21 18:55 49.04405 16.74678 10136 ft 279 kts 129°
2026-04-21 18:55 49.03084 16.77019 10489 ft 303 kts 129°
2026-04-21 18:55 49.01671 16.79521 10684 ft 329 kts 129°
2026-04-21 18:56 49.00131 16.82247 10985 ft 347 kts 129°
2026-04-21 18:56 48.98552 16.85032 11826 ft 348 kts 129°
2026-04-21 18:56 48.96960 16.87843 12529 ft 353 kts 129°
2026-04-21 18:56 48.95348 16.90689 13254 ft 357 kts 129°
2026-04-21 18:57 48.93727 16.93547 13989 ft 357 kts 129°
2026-04-21 18:57 48.92096 16.96415 14643 ft 360 kts 129°
2026-04-21 18:57 48.90460 16.99292 15313 ft 362 kts 130°
2026-04-21 18:57 48.88804 17.02203 16013 ft 367 kts 129°
2026-04-21 18:58 48.87152 17.05102 16712 ft 371 kts 130°
2026-04-21 18:58 48.85451 17.08082 17458 ft 375 kts 130°
2026-04-21 18:58 48.83731 17.11091 18231 ft 379 kts 129°
2026-04-21 18:58 48.81994 17.14129 18944 ft 383 kts 130°
2026-04-21 18:59 48.80247 17.17181 19644 ft 384 kts 130°
2026-04-21 18:59 48.78490 17.20246 20353 ft 386 kts 130°
2026-04-21 18:59 48.76726 17.23319 21097 ft 387 kts 130°
2026-04-21 18:59 48.74955 17.26402 21828 ft 388 kts 130°
2026-04-21 19:00 48.73206 17.29441 22568 ft 390 kts 130°
2026-04-21 19:00 48.71421 17.32542 23324 ft 391 kts 130°
2026-04-21 19:00 48.69629 17.35649 24031 ft 392 kts 130°
2026-04-21 19:00 48.67831 17.38762 24677 ft 394 kts 130°
2026-04-21 19:01 48.66032 17.41877 25336 ft 395 kts 131°
2026-04-21 19:01 48.64220 17.45008 25999 ft 396 kts 131°
2026-04-21 19:01 48.62403 17.48144 26659 ft 398 kts 131°
2026-04-21 19:01 48.60575 17.51296 27331 ft 400 kts 131°
2026-04-21 19:02 48.58764 17.54416 28000 ft 402 kts 131°
2026-04-21 19:02 48.56891 17.57636 28528 ft 409 kts 131°
2026-04-21 19:02 48.54993 17.60895 28516 ft 428 kts 131°
2026-04-21 19:02 48.52987 17.64336 28523 ft 445 kts 131°
2026-04-21 19:03 48.50916 17.67886 28552 ft 460 kts 131°
2026-04-21 19:03 48.48790 17.71526 29079 ft 464 kts 131°
2026-04-21 19:03 48.46649 17.75184 29562 ft 468 kts 131°
2026-04-21 19:03 48.44488 17.78870 30032 ft 472 kts 132°
2026-04-21 19:04 48.42314 17.82575 30453 ft 475 kts 132°
2026-04-21 19:04 48.40117 17.86312 30850 ft 479 kts 132°
2026-04-21 19:04 48.37898 17.90083 31277 ft 482 kts 132°
2026-04-21 19:04 48.35708 17.93800 31819 ft 481 kts 132°
2026-04-21 19:05 48.33489 17.97559 32327 ft 482 kts 132°
2026-04-21 19:05 48.31260 18.01330 32832 ft 484 kts 132°
2026-04-21 19:05 48.29011 18.05097 33306 ft 485 kts 133°
2026-04-21 19:05 48.26582 18.08620 33822 ft 485 kts 137°
2026-04-21 19:06 48.24143 18.12069 34350 ft 485 kts 137°
2026-04-21 19:06 48.21701 18.15565 34815 ft 485 kts 136°
2026-04-21 19:06 48.19265 18.19072 35288 ft 485 kts 136°
2026-04-21 19:06 48.16823 18.22556 35763 ft 485 kts 137°
2026-04-21 19:07 48.14408 18.25978 36232 ft 486 kts 137°
2026-04-21 19:07 48.11956 18.29460 36721 ft 486 kts 137°
2026-04-21 19:07 48.09508 18.32946 37204 ft 486 kts 137°
2026-04-21 19:07 48.07054 18.36430 37718 ft 486 kts 137°
2026-04-21 19:08 48.04606 18.39891 38220 ft 486 kts 137°
2026-04-21 19:08 48.02148 18.43362 38708 ft 487 kts 137°
2026-04-21 19:08 47.99679 18.46850 39088 ft 488 kts 137°
2026-04-21 19:08 47.98047 18.49154 39360 ft 488 kts 137°
2026-04-21 19:09 47.95585 18.52624 39785 ft 488 kts 137°
2026-04-21 19:09 47.92319 18.57216 40351 ft 488 kts 137°
2026-04-21 19:09 47.89846 18.60688 40771 ft 488 kts 137°
2026-04-21 19:09 47.87378 18.64151 41203 ft 487 kts 137°
2026-04-21 19:10 47.84910 18.67607 41628 ft 487 kts 137°
2026-04-21 19:10 47.82440 18.71061 42050 ft 487 kts 137°
2026-04-21 19:10 47.80806 18.73342 42317 ft 487 kts 137°
2026-04-21 19:10 47.78327 18.76764 42750 ft 487 kts 138°
2026-04-21 19:11 47.75810 18.80133 43166 ft 486 kts 139°
2026-04-21 19:11 47.73300 18.83491 43572 ft 486 kts 138°
2026-04-21 19:11 47.70805 18.86887 43981 ft 486 kts 138°
2026-04-21 19:11 47.67510 18.91370 44518 ft 485 kts 138°
2026-04-21 19:12 47.65825 18.93633 44774 ft 485 kts 138°
2026-04-21 19:12 47.62507 18.98079 45069 ft 489 kts 138°
2026-04-21 19:12 47.60830 19.00337 45071 ft 494 kts 138°
2026-04-21 19:13 47.55665 19.07289 45086 ft 509 kts 138°
2026-04-21 19:13 47.50343 19.14404 45082 ft 522 kts 138°
2026-04-21 19:14 47.44896 19.21682 45084 ft 535 kts 139°
2026-04-21 19:14 47.39303 19.29123 45079 ft 546 kts 139°
2026-04-21 19:15 47.33689 19.36577 45074 ft 547 kts 139°
2026-04-21 19:15 47.28025 19.44070 45087 ft 548 kts 139°
2026-04-21 19:16 47.22356 19.51549 45073 ft 548 kts 139°
2026-04-21 19:16 47.16650 19.58977 45070 ft 548 kts 140°
2026-04-21 19:17 47.08104 19.69989 45085 ft 548 kts 139°
2026-04-21 19:17 47.02370 19.77347 45072 ft 548 kts 140°
2026-04-21 19:18 46.96646 19.84686 45074 ft 548 kts 140°
2026-04-21 19:18 46.90899 19.92030 45071 ft 548 kts 140°
2026-04-21 19:19 46.85169 19.99327 45060 ft 547 kts 140°
2026-04-21 19:19 46.79469 20.06569 45054 ft 547 kts 140°
2026-04-21 19:20 46.75888 20.11105 45048 ft 547 kts 140°